STARLINK-35496, 66114

Orbit data source: Space-Track

STARLINK-35496, 66114 is a payload satellite owned by SpaceX/Seattle (US) in LEO that was launched on Wed, 22 Oct 2025 UTC via an FALCON 9 launch vehicle from the Air Force Western Test Range (AFWTR). Payload-class satellites include a variety of spacecraft equipped with specific instruments for various scientific and technological missions. These include communications satellites like Starlink; space stations such as the ISS; scientific satellites like the Hubble; Earth observation satellites from companies like Planet Labs, Umbra, and HawkEye 360; GPS; miniature CubeSats for education and research; and military/defense satellites.

Loading next visibility...
Identifier
66114, 2025-237A
Orbit
LEO
Country
Flag of USUS
Related business
Manufacturer
SpaceX/Seattle
Mission
Operational Commercial Communications
Bus & Motor
STARLINK V2MO, Unknown motor
Mass
575 kg wet, ~530 kg dry
Launch date (UTC)
2025-10-22 (4 months ago)
Launch vehicle
FALCON 9
Launch site
Air Force Western Test Range (AFWTR)
Object type
Payload
Rocket body
Debris
Shape & HBR
Box + 2 Pan, 17.7 m
Radar Cross Section
36.964 m²

Expand to show TLE details & history
Last TLE update: 19 hours ago

TLE from 19 hours ago
0 STARLINK-35496
1 66114U 25237A   26061.32800864  .00018360  00000-0  63035-3 0  9991
2 66114  53.1588  73.8084 0001589  94.6694 265.4488 15.30206262 21480
Epoch: 2026-03-02T07:52Z
TLE epoch observation values (Epoch: 2026-03-02T07:52:19.946Z)
Latitude
-0.00004°
Longitude
155.60226°
Altitude
476.183 km
Speed
7.629 km/s
True Right ascension
04h 55m 14s
True Declination
0° 00' 00"
Sunlit
Object was in daylight at epoch
Visualization orbit readout
Latitude
Unknown
Longitude
Unknown
Altitude
Unknown
Speed
Unknown
Apparent Right ascension
Unknown
Apparent Declination
Unknown
Sunlit
N/A
Visualization observer readout
Local Sidereal Time
06:58:46
Azimuth
Unknown
Elevation
Unknown
Doppler factor
Unknown
Orbital elements
Apogee altitude
476.542 km
Perigee altitude
474.364 km
Semi-major axis
6,853.59 km
Eccentricity
0.00016
Inclination
53.1588°
RAAN
73.8084°
Arg. of periapsis
94.6694°
True anomaly
265.43065°
Mean anomaly
265.4488°
Eccentric anomaly
265.43972°
Mean motion
3.8253 °/min
Orbital period
94.11 mins
BSTAR
0.00063035
Loading maneuver chart data...
Computing Atmospheric mass density...
Loading historical data...
Loading historical data...
Loading historical data...
Loading historical data...
Loading historical data...
Loading historical data...
Loading historical data...

Documentation

Showing up to 5 results
|